This demonstration page uses our WeatherBlox Daily Observations layout. Learn more.

Left ArrowRight Arrow

Hourly Observations for February 28, 2021

Temp ( °F °C ) Dew Point ( °F °C ) Humidity (%) Winds ( mph kmh ) Pressure ( in mb ) Visibility ( mi km ) Precip ( " mm )
12:54 am 00:54 Clear 39 3.9 35 1.7 86 86 W 3 6 29.78 1008 9 14.48406 0 0
1:54 am 01:54 Clear 38 3.3 33 0.6 83 83 NNW 8 13 29.78 1009 10 16.0934 0 0
2:54 am 02:54 Clear 36 2.2 30 -1.1 79 79 NW 9 15 29.81 1010 10 16.0934 0 0
3:54 am 03:54 Partly Cloudy 34 1.1 29 -1.7 82 82 NW 13 20 29.82 1010 10 16.0934 0 0
4:00 am 04:00 Mostly Cloudy 34 1.1 29 -1.7 82 82 NW 14 22 29.86 1011 10 16.0934 0 0
4:42 am 04:42 Mostly Cloudy 34 1.1 30 -1.1 85 85 WNW 9 15 29.88 1012 10 16.0934 0 0
4:54 am 04:54 Mostly Clear 34 1.1 30 -1.1 85 85 NW 10 17 29.84 1011 10 16.0934 0 0
5:32 am 05:32 Mostly Cloudy 35 1.7 30 -1.1 82 82 NW 10 17 29.9 1013 10 16.0934 0 0
5:54 am 05:54 Cloudy 35 1.7 30 -1.1 82 82 NW 20 31 29.87 1011 10 16.0934 0 0
6:54 am 06:54 Cloudy 37 2.8 30 -1.1 76 76 NW 23 37 29.9 1013 10 16.0934 0 0
7:54 am 07:54 Mostly Cloudy 37 2.8 30 -1.1 76 76 NW 15 24 29.95 1014 10 16.0934 0 0
8:12 am 08:12 Cloudy 37 2.8 30 -1.1 76 76 NW 18 30 29.99 1015 10 16.0934 0 0
8:35 am 08:35 Cloudy 37 2.8 30 -1.1 76 76 NNW 22 35 30.02 1016 10 16.0934 0 0
8:54 am 08:54 Cloudy 37 2.8 29 -1.7 73 73 NW 23 37 30 1016 10 16.0934 0 0
9:23 am 09:23 Cloudy 36 2.2 29 -1.7 76 76 NW 21 33 30.06 1018 10 16.0934 0 0
9:38 am 09:38 Cloudy 35 1.7 28 -2.2 76 76 NNW 23 37 30.07 1018 10 16.0934 0 0
9:54 am 09:54 Cloudy 35 1.7 27 -2.8 72 72 NW 23 37 30.05 1018 10 16.0934 0 0
10:54 am 10:54 Cloudy 37 2.8 28 -2.2 70 70 NW 17 28 30.09 1019 10 16.0934 0 0
11:54 am 11:54 Cloudy 37 2.8 27 -2.8 67 67 NNW 16 26 30.11 1020 10 16.0934 0 0
12:54 pm 12:54 Cloudy 38 3.3 27 -2.8 65 65 NW 13 20 30.12 1020 10 16.0934 0 0
1:54 pm 13:54 Cloudy 40 4.4 28 -2.2 63 63 NNW 15 24 30.12 1020 10 16.0934 0 0
2:54 pm 14:54 Cloudy 38 3.3 26 -3.3 62 62 NW 13 20 30.14 1021 10 16.0934 0 0
3:54 pm 15:54 Mostly Cloudy 39 3.9 26 -3.3 60 60 NNW 14 22 30.15 1021 10 16.0934 0 0
4:54 pm 16:54 Mostly Cloudy 39 3.9 26 -3.3 60 60 NNW 14 22 30.16 1021 10 16.0934 0 0
5:54 pm 17:54 Sunny 38 3.3 25 -3.9 60 60 NW 9 15 30.16 1022 10 16.0934 0 0
6:54 pm 18:54 Clear 36 2.2 23 -5 59 59 NW 6 9 30.18 1022 10 16.0934 0 0
7:54 pm 19:54 Clear 32 0 22 -5.6 66 66 NNW 3 6 30.21 1023 10 16.0934 0 0
8:54 pm 20:54 Clear 27 -2.8 22 -5.6 81 81 Calm 30.22 1024 10 16.0934 0 0
9:54 pm 21:54 Clear 28 -2.2 21 -6.1 75 75 Calm 30.24 1024 10 16.0934 0 0
10:54 pm 22:54 Clear 26 -3.3 20 -6.7 78 78 Calm 30.26 1025 10 16.0934 0 0
11:54 pm 23:54 Clear 27 -2.8 21 -6.1 78 78 Calm 30.24 1024 10 16.0934 0 0

Powered by AerisWeather